When you browse on this site, cookies collect data to enhance your experience and personalize the content and advertising you see.
Visit our Privacy Policy to learn more. By continuing to use the site, you agree to this use of cookies and data.
  • In Romania
  • List of Countries
  • For 7 days
  • Water Temperature
  • Satellite Maps
  • Weather Map
  • Weather Widgets
  • user-avatar
    Login

    Hourly Weather Wronki

    Today, 23 May, Thursday

    Time Temperature Precipitation Wind Pressure Humidity
    00:00 +10°C° 0.1 mm 5 mps 755 mmHg 91%
    01:00 +11°C° 0 mm 4 mps 755 mmHg 91%
    02:00 +11°C° 0.1 mm 4 mps 755 mmHg 91%
    03:00 +11°C° 0.1 mm 4 mps 755 mmHg 91%
    04:00 +9°C° 0.1 mm 5 mps 755 mmHg 91%
    05:00 +9°C° 0.1 mm 5 mps 755 mmHg 90%
    06:00 +9°C° 0.1 mm 5 mps 756 mmHg 89%
    07:00 +11°C° 0 mm 4 mps 756 mmHg 87%
    08:00 +11°C° 0 mm 4 mps 756 mmHg 82%
    09:00 +12°C° 0 mm 4 mps 756 mmHg 76%
    10:00 +13°C° 0 mm 4 mps 757 mmHg 71%
    11:00 +14°C° 0 mm 4 mps 756 mmHg 65%
    12:00 +17°C° 0 mm 4 mps 756 mmHg 60%
    13:00 +18°C° 0 mm 4 mps 756 mmHg 52%
    14:00 +18°C° 0 mm 3 mps 756 mmHg 52%
    15:00 +19°C° 0 mm 3 mps 756 mmHg 53%
    16:00 +19°C° 0 mm 3 mps 756 mmHg 53%
    17:00 +18°C° 0 mm 3 mps 756 mmHg 58%
    18:00 +17°C° 0 mm 3 mps 756 mmHg 62%
    19:00 +16°C° 0 mm 2 mps 756 mmHg 67%
    20:00 +14°C° 0 mm 2 mps 756 mmHg 70%
    21:00 +13°C° 0 mm 2 mps 757 mmHg 72%
    22:00 +10°C° 0 mm 2 mps 757 mmHg 75%
    23:00 +9°C° 0 mm 2 mps 757 mmHg 77%

    Tomorrow, 24 May, Friday

    Time Temperature Precipitation Wind Pressure Humidity
    00:00 +10°C° 0 mm 1 mps 757 mmHg 78%
    01:00 +9°C° 0 mm 1 mps 757 mmHg 80%
    02:00 +9°C° 0 mm 1 mps 757 mmHg 80%
    03:00 +9°C° 0 mm 1 mps 757 mmHg 81%
    04:00 +8°C° 0 mm 1 mps 757 mmHg 81%
    05:00 +10°C° 0 mm 1 mps 757 mmHg 76%
    06:00 +12°C° 0 mm 1 mps 756 mmHg 70%
    07:00 +14°C° 0 mm 1 mps 756 mmHg 65%
    08:00 +16°C° 0 mm 1 mps 756 mmHg 59%
    09:00 +19°C° 0 mm 1 mps 756 mmHg 53%
    10:00 +20°C° 0 mm 1 mps 756 mmHg 48%
    11:00 +21°C° 0 mm 1 mps 755 mmHg 45%
    12:00 +22°C° 0 mm 1 mps 755 mmHg 41%
    13:00 +21°C° 0 mm 0 mps 755 mmHg 38%
    14:00 +23°C° 0 mm 1 mps 754 mmHg 38%
    15:00 +24°C° 0 mm 1 mps 754 mmHg 37%
    16:00 +24°C° 0 mm 1 mps 753 mmHg 37%
    17:00 +22°C° 0 mm 1 mps 753 mmHg 45%
    18:00 +21°C° 0 mm 1 mps 753 mmHg 53%
    19:00 +18°C° 0 mm 2 mps 753 mmHg 60%
    20:00 +17°C° 0 mm 2 mps 753 mmHg 63%
    21:00 +16°C° 0 mm 2 mps 753 mmHg 66%
    22:00 +14°C° 0 mm 2 mps 753 mmHg 69%
    23:00 +14°C° 0 mm 2 mps 753 mmHg 73%

    Day after tomorrow, 25 May, Saturday

    Time Temperature Precipitation Wind Pressure Humidity
    00:00 +14°C° 0 mm 2 mps 753 mmHg 77%
    01:00 +14°C° 0 mm 2 mps 753 mmHg 80%
    02:00 +13°C° 0 mm 2 mps 753 mmHg 83%
    03:00 +12°C° 0 mm 3 mps 753 mmHg 86%
    04:00 +12°C° 0 mm 3 mps 753 mmHg 89%
    05:00 +13°C° 0 mm 3 mps 753 mmHg 86%
    06:00 +14°C° 0 mm 3 mps 753 mmHg 82%
    07:00 +16°C° 0 mm 3 mps 753 mmHg 78%
    08:00 +17°C° 0 mm 3 mps 754 mmHg 71%
    09:00 +18°C° 0 mm 4 mps 754 mmHg 63%
    10:00 +19°C° 0 mm 4 mps 754 mmHg 55%
    11:00 +20°C° 0 mm 4 mps 754 mmHg 53%
    12:00 +21°C° 0 mm 4 mps 754 mmHg 50%
    13:00 +21°C° 0 mm 4 mps 754 mmHg 48%
    14:00 +21°C° 0 mm 4 mps 753 mmHg 48%
    15:00 +22°C° 0 mm 4 mps 753 mmHg 49%
    16:00 +22°C° 0 mm 4 mps 753 mmHg 49%
    17:00 +20°C° 0 mm 3 mps 753 mmHg 55%
    18:00 +19°C° 0 mm 3 mps 753 mmHg 61%
    19:00 +18°C° 0 mm 2 mps 753 mmHg 67%
    20:00 +16°C° 0 mm 2 mps 753 mmHg 70%
    21:00 +15°C° 0 mm 2 mps 753 mmHg 74%
    22:00 +13°C° 0 mm 1 mps 753 mmHg 78%
    23:00 +13°C° 0 mm 1 mps 753 mmHg 79%

    26 May, Sunday

    Time Temperature Precipitation Wind Pressure Humidity
    00:00 +12°C° 0 mm 1 mps 753 mmHg 81%
    01:00 +12°C° 0 mm 1 mps 753 mmHg 83%
    02:00 +11°C° 0 mm 1 mps 753 mmHg 85%
    03:00 +10°C° 0 mm 2 mps 753 mmHg 88%
    04:00 +9°C° 0 mm 2 mps 753 mmHg 91%
    05:00 +11°C° 0 mm 3 mps 753 mmHg 86%
    06:00 +12°C° 0 mm 3 mps 753 mmHg 81%
    07:00 +14°C° 0 mm 4 mps 753 mmHg 77%
    08:00 +15°C° 0 mm 4 mps 752 mmHg 70%
    09:00 +17°C° 0 mm 4 mps 752 mmHg 63%
    10:00 +17°C° 0 mm 5 mps 752 mmHg 57%
    11:00 +19°C° 0 mm 5 mps 752 mmHg 54%
    12:00 +20°C° 0 mm 5 mps 752 mmHg 52%
    13:00 +20°C° 0 mm 5 mps 751 mmHg 49%
    14:00 +21°C° 0 mm 5 mps 751 mmHg 51%
    15:00 +21°C° 0 mm 5 mps 751 mmHg 52%
    16:00 +21°C° 0 mm 4 mps 750 mmHg 53%
    17:00 +20°C° 0 mm 4 mps 750 mmHg 57%
    18:00 +19°C° 0 mm 4 mps 750 mmHg 61%
    19:00 +18°C° 0 mm 3 mps 750 mmHg 64%
    20:00 +17°C° 0 mm 3 mps 751 mmHg 70%
    21:00 +14°C° 0 mm 3 mps 751 mmHg 76%
    22:00 +13°C° 0 mm 3 mps 751 mmHg 82%
    23:00 +13°C° 0 mm 3 mps 751 mmHg 85%

    27 May, Monday

    Time Temperature Precipitation Wind Pressure Humidity
    00:00 +13°C° 0 mm 3 mps 751 mmHg 88%
    01:00 +13°C° 0 mm 4 mps 750 mmHg 91%
    02:00 +12°C° 0 mm 4 mps 750 mmHg 90%
    03:00 +12°C° 0 mm 4 mps 749 mmHg 90%
    04:00 +12°C° 0 mm 4 mps 749 mmHg 89%
    05:00 +13°C° 0 mm 5 mps 749 mmHg 84%
    06:00 +15°C° 0 mm 5 mps 749 mmHg 79%
    07:00 +16°C° 0 mm 6 mps 749 mmHg 73%
    08:00 +17°C° 0 mm 6 mps 749 mmHg 73%
    09:00 +17°C° 0 mm 6 mps 749 mmHg 72%
    10:00 +19°C° 0 mm 6 mps 749 mmHg 72%
    11:00 +19°C° 0.2 mm 6 mps 749 mmHg 73%
    12:00 +17°C° 0.2 mm 6 mps 749 mmHg 75%
    13:00 +17°C° 0.2 mm 6 mps 748 mmHg 77%
    14:00 +19°C° 0 mm 6 mps 749 mmHg 73%
    15:00 +19°C° 0 mm 5 mps 749 mmHg 69%
    16:00 +20°C° 0 mm 5 mps 749 mmHg 65%
    17:00 +19°C° 0 mm 4 mps 749 mmHg 68%
    18:00 +18°C° 0 mm 3 mps 749 mmHg 71%
    19:00 +18°C° 0 mm 2 mps 749 mmHg 74%
    20:00 +17°C° 0 mm 2 mps 749 mmHg 77%
    21:00 +15°C° 0 mm 1 mps 750 mmHg 81%
    22:00 +14°C° 0 mm 1 mps 750 mmHg 84%
    23:00 +14°C° 0 mm 1 mps 750 mmHg 86%

    28 May, Tuesday

    Time Temperature Precipitation Wind Pressure Humidity
    00:00 +12°C° 0 mm 0 mps 750 mmHg 89%
    01:00 +11°C° 0 mm 0 mps 750 mmHg 91%
    02:00 +11°C° 0 mm 0 mps 750 mmHg 91%
    03:00 +11°C° 0 mm 0 mps 750 mmHg 92%
    04:00 +10°C° 0 mm 0 mps 750 mmHg 92%
    05:00 +12°C° 0 mm 0 mps 750 mmHg 88%
    06:00 +15°C° 0 mm 1 mps 750 mmHg 83%
    07:00 +16°C° 0 mm 1 mps 750 mmHg 78%
    08:00 +19°C° 0.1 mm 1 mps 749 mmHg 73%
    09:00 +20°C° 0.1 mm 1 mps 749 mmHg 69%
    10:00 +21°C° 0.1 mm 1 mps 749 mmHg 65%
    11:00 +22°C° 0.1 mm 1 mps 749 mmHg 61%
    12:00 +23°C° 0.1 mm 1 mps 749 mmHg 58%
    13:00 +23°C° 0.1 mm 1 mps 748 mmHg 55%
    14:00 +21°C° 0.6 mm 2 mps 748 mmHg 64%
    15:00 +19°C° 0.6 mm 2 mps 748 mmHg 73%
    16:00 +18°C° 0.6 mm 2 mps 748 mmHg 82%
    17:00 +17°C° 0.5 mm 3 mps 748 mmHg 85%
    18:00 +16°C° 0.5 mm 3 mps 748 mmHg 88%
    19:00 +16°C° 0.5 mm 3 mps 749 mmHg 91%
    20:00 +14°C° 0.4 mm 3 mps 749 mmHg 92%
    21:00 +14°C° 0.4 mm 3 mps 749 mmHg 93%
    22:00 +14°C° 0.4 mm 3 mps 750 mmHg 94%
    23:00 +13°C° 0.3 mm 4 mps 750 mmHg 94%
    Show more